Погода в Харьягинском

Россия / Ненецкий автономный округ     67°12′51″N   56°46′28″E
темп.,
°C
ветер,
м/с
пор.,
м/с
влажн.,
%
обл.,
%
осадки,
мм/ч
давл.,
гПа
погр.,
м
23 апреля, пт
пт2300:00+2ююз81598100 0.3 1014599
03:00+2ююз81498100 0.4 1014525
06:00+2ююз71399100 0.0 1014445
09:00+3ю816100100 0.1 1014684
12:00+1зюз61098100 1.6 1015425
15:00+2юз5109475 1.6 1017527
18:00+2юз5109177 0.1 1018248
21:00+1зюз71289100 0.1 1020579
24 апреля, сб
сб2400:00+1з61181100 0.0 1022443
03:00−2з35935 0.0 102480
06:00−1з228844 0.0 102591
09:00+2ююз128161 0.0 1025212
12:00+5юв337599 0.0 1025396
15:00+7юв457663 0.0 1025397
18:00+4вюв489066 0.0 1024125
21:00+2юв4890100 0.0 1024102
25 апреля, вс
вс2500:00+1юв4789100 0.0 102485
03:00+1юв489085 0.0 1023114
06:00+2вюв4783100 0.0 1022193
09:00+6вюв4470100 0.0 1020266
12:00+8юв336594 0.0 1019599
15:00+8вюв4466100 0.0 1017563
18:00+6в3374100 0.0 101536
21:00+4вюв4681100 0.0 101486
26 апреля, пн
пн2600:00+3вюв4688100 0.0 1012108
03:00+2в359495 0.0 101088
06:00+3в5887100 0.0 1008290
09:00+7юв5669100 0.0 1006769
12:00+9юв2358100 0.0 10041028
15:00+9ююз1254100 0.0 10031125
18:00+8сз2365100 0.0 100297
21:00+5сз3478100 0.0 100296
27 апреля, вт
вт2700:00+5сз3488100 0.0 1001151
03:00+4св0188100 0.1 100012
06:00+5зюз1182100 0.0 1000225
09:00+6зсз2375100 0.1 999747
12:00+5сз3382100 0.1 999422
15:00+5ссз3376100 0.1 999552
18:00+4с4391100 0.0 999434
21:00+2ссв3396100 0.1 998351